Weather History for KJST - March, 2012

Change the Weather History Date:

Friday, March 9, 2012

  Actual Average Record
Temperature  
Mean Temperature 30 °F 33 °F  
Max Temperature 35 °F 41 °F 71 °F (1992)
Min Temperature 24 °F 25 °F -2 °F (1943)
Degree Days  
Heating Degree Days 35 32  
Month to date heating degree days 300  
Since 1 July heating degree days 5179  
Cooling Degree Days 0 0  
Month to date cooling degree days 0  
Year to date cooling degree days 0  
Moisture  
Dew Point 20 °F    
Average Humidity 67    
Maximum Humidity 82    
Minimum Humidity 52    
Precipitation  
Precipitation 0.00 in 0.09 in 1.00 in (1976)
Month to date precipitation 0.72  
Year to date precipitation 5.95  
Sea Level Pressure  
Sea Level Pressure 30.19 in    
Wind  
Wind Speed 19 mph (WNW)    
Max Wind Speed 25 mph    
Max Gust Speed 40 mph    
Visibility 10 miles    
Events      
T = Trace of Precipitation, MM = Missing Value Source: NWS Daily Summary

Daily Weather History Graph

Daily Weather History Graph

Search for Another Location

Airport or City:

Trip Planner

Search our weather history database for the weather conditions in past years. The results will help you decide how hot, cold, wet, or windy it might be!

Date:

Astronomy

Mar. 09, 2012 Rise Set
Actual Time 6:35 AM EST 6:16 PM EST
Civil Twilight 6:08 AM EST 6:43 PM EST
Nautical Twilight 5:37 AM EST 7:14 PM EST
Astronomical Twilight 5:05 AM EST 7:46 PM EST
Moon 8:14 PM EST (3/9) 6:53 AM EST (3/9)
Length of Visible Light 12h 34m
Length of Day
11h 40m
Full, 98% of the Moon is Illuminated
Mar 9
Full
Mar 14
Last Quarter
Mar 22
New
Mar 30
First Quarter
Apr 6
Full

Hourly Weather History & Observations

Time (EST) Temp. Windchill Dew Point Humidity Pressure Visibility Wind Dir Wind Speed Gust Speed Precip Events Conditions
12:29 AM 33.8 °F 22.2 °F 28.4 °F 81% 30.01 in 10.0 mi WNW 20.7 mph 32.2 mph N/A   Partly Cloudy
12:54 AM 33.1 °F 20.6 °F 28.0 °F 82% 30.06 in 10.0 mi WNW 23.0 mph 40.3 mph N/A   Partly Cloudy
1:54 AM 32.0 °F 19.5 °F 24.1 °F 73% 30.08 in 10.0 mi WNW 21.9 mph 38.0 mph N/A   Clear
2:47 AM 30.2 °F 20.8 °F 24.8 °F 80% 30.05 in 10.0 mi WNW 11.5 mph 27.6 mph N/A   Mostly Cloudy
2:54 AM 30.9 °F 21.7 °F 25.0 °F 79% 30.09 in 10.0 mi West 11.5 mph 21.9 mph N/A   Mostly Cloudy
3:54 AM 30.0 °F 16.9 °F 25.0 °F 82% 30.10 in 10.0 mi WNW 21.9 mph 33.4 mph N/A   Mostly Cloudy
4:36 AM 28.4 °F 14.7 °F 23.0 °F 80% 30.08 in 10.0 mi WNW 21.9 mph 29.9 mph N/A   Scattered Clouds
4:54 AM 28.9 °F 16.5 °F 21.9 °F 75% 30.13 in 10.0 mi WNW 18.4 mph 25.3 mph N/A   Scattered Clouds
5:54 AM 28.0 °F 15.7 °F 21.0 °F 75% 30.15 in 10.0 mi West 17.3 mph - N/A   Clear
6:54 AM 28.4 °F 17.5 °F 21.2 °F 74% 30.11 in 10.0 mi West 13.8 mph - N/A   Partly Cloudy
7:54 AM 28.9 °F 17.3 °F 19.9 °F 69% 30.14 in 10.0 mi West 16.1 mph 19.6 mph N/A   Clear
8:54 AM 30.9 °F 18.7 °F 21.0 °F 67% 30.16 in 10.0 mi West 19.6 mph 25.3 mph N/A   Clear
9:54 AM 33.1 °F 22.2 °F 23.0 °F 66% 30.15 in 10.0 mi West 17.3 mph 28.8 mph N/A   Clear
10:54 AM 35.1 °F 24.8 °F 24.1 °F 64% 30.14 in 10.0 mi West 17.3 mph 26.5 mph N/A   Overcast
11:54 AM 34.0 °F 21.8 °F 21.9 °F 61% 30.17 in 10.0 mi West 23.0 mph 39.1 mph N/A   Overcast
12:54 PM 34.0 °F 22.7 °F 21.0 °F 59% 30.19 in 10.0 mi West 19.6 mph 27.6 mph N/A   Overcast
1:54 PM 35.1 °F 26.4 °F 21.0 °F 57% 30.19 in 10.0 mi West 12.7 mph 33.4 mph 0.00 in   Mostly Cloudy
2:54 PM 35.1 °F 23.8 °F 19.0 °F 52% 30.21 in 10.0 mi West 20.7 mph 31.1 mph N/A   Overcast
3:54 PM 34.0 °F 23.0 °F 19.0 °F 54% 30.23 in 10.0 mi West 18.4 mph 36.8 mph N/A   Overcast
4:54 PM 33.1 °F 23.0 °F 18.0 °F 54% 30.26 in 10.0 mi WNW 15.0 mph 28.8 mph N/A   Overcast
5:54 PM 30.9 °F 19.8 °F 16.0 °F 54% 30.29 in 10.0 mi WNW 16.1 mph 24.2 mph N/A   Mostly Cloudy
6:54 PM 28.9 °F 17.3 °F 15.1 °F 56% 30.31 in 10.0 mi WNW 16.1 mph 26.5 mph N/A   Mostly Cloudy
7:54 PM 28.0 °F 15.7 °F 14.0 °F 56% 30.33 in 10.0 mi WNW 17.3 mph 24.2 mph N/A   Overcast
8:54 PM 27.0 °F 13.9 °F 12.9 °F 56% 30.35 in 10.0 mi NW 18.4 mph 25.3 mph N/A   Overcast
9:54 PM 26.1 °F 12.0 °F 12.9 °F 58% 30.35 in 10.0 mi WNW 20.7 mph 26.5 mph N/A   Partly Cloudy
10:54 PM 25.0 °F 9.2 °F 14.0 °F 63% 30.36 in 10.0 mi WNW 25.3 mph 33.4 mph N/A   Partly Cloudy
11:54 PM 24.1 °F 9.0 °F 15.1 °F 69% 30.37 in 10.0 mi NW 21.9 mph 27.6 mph N/A   Scattered Clouds